[[{"header":{"parameterUnit":"m.s-1","parameterCategory":1,"la1":30.2991,"la2":30.254,"lo1":-89.0895,"lo2":-89.0444,"dy":0.0017,"dx":0.0017,"nx":28,"ny":28,"refTime":"2024-04-05T09:00:00:Z","depth":0,"parameterNumber":2,"parameterNumberName":"U-component_of_WINDS"},"data":[0,0,0,0,0,0,0,0,0,0,0,0,0,0,0,0,0,0,0,0,0,0,0,0,0,0,0,0,0,0,0,0,0,0,0,0,0,0,0,0,0,0,0,0,0,0,0,0,0,0,0,0,0,0,0,0,0,0,-2.0447,-2.0446,0,-2.0327,-2.0326,-2.0324,-2.0202,-2.02,-2.0199,-2.0197,-2.0073,-2.0071,-2.0069,0,0,0,0,0,0,0,0,0,0,0,0,0,-2.0571,-2.057,-2.0447,-2.0446,-2.0444,-2.0327,-2.0326,-2.0324,-2.0202,-2.02,-2.0198,-2.0196,-2.0073,-2.0071,-2.0069,0,0,0,0,0,0,0,0,0,0,0,0,0,-2.0491,-2.0569,-2.0447,-2.0369,-2.0361,-2.0328,-2.0326,-2.0324,-2.0203,-2.02,-2.0198,-2.0195,-2.0074,-2.0071,-2.0069,-2.0102,0,0,-2.0061,-2.0059,0,0,0,0,0,0,0,0,-2.0496,-2.0487,-2.0382,-2.0375,-2.0365,-2.0277,-2.0324,-2.0249,-2.0203,-2.0263,-2.0197,-2.0194,-2.0143,-2.0134,-2.0117,-2.0096,-2.0091,-2.006,-2.0059,-2.0058,-2.0057,0,0,0,0,0,0,0,-2.0502,-2.0491,-2.0399,-2.0381,-2.0371,-2.034,-2.0326,-2.0309,-2.0218,-2.0257,-2.0248,-2.0236,-2.0137,-2.012,-2.0113,-2.0089,-2.006,-2.0058,-2.0056,-2.0055,-2.0091,-2.0094,0,0,0,0,0,0,-2.0519,-2.0497,-2.0403,-2.0396,-2.0426,-2.034,-2.0324,-2.0308,-2.0218,-2.0202,-2.0238,-2.023,-2.0126,-2.0116,-2.0108,-2.0141,-2.0058,-2.0055,-2.0054,-2.0089,-2.0092,-2.0095,0,0,0,0,0,0,-2.0522,-2.0512,-2.0408,-2.0444,-2.0428,-2.0341,-2.0323,-2.0307,-2.0289,-2.0203,-2.0186,-2.0237,-2.0123,-2.0112,-2.0105,-2.0135,-2.0054,-2.0052,-2.0086,-2.009,-2.0093,-2.0208,0,0,0,0,0,0,-2.0526,-2.0514,-2.0525,-2.0445,-2.0427,-2.0407,-2.0325,-2.0306,-2.0285,-2.0274,-2.0197,-2.0182,-2.012,-2.011,-2.0102,-2.013,-2.0049,-2.0083,-2.0088,-2.0092,-2.0201,-2.0216,-2.0228,0,0,0,0,0,-2.0531,-2.0562,-2.0526,-2.0516,-2.0439,-2.0409,-2.0398,-2.0327,-2.0288,-2.0299,-2.0244,-2.0185,-2.0134,-2.011,-2.0101,-2.0128,-2.008,-2.0086,-2.0092,-2.0196,-2.0213,-2.0228,0,0,0,0,0,0,-2.0646,-2.0549,-2.0509,-2.0515,-2.0471,-2.0388,-2.0399,-2.0347,-2.0313,-2.0304,-2.0217,-2.0201,-2.0204,-2.0166,-2.014,-2.0157,-2.0099,-2.0103,-2.0181,-2.0197,-2.021,-2.0218,-2.0047,0,0,0,0,0,-2.0673,-2.0656,-2.0572,-2.0586,-2.0566,-2.0487,-2.0471,-2.042,-2.0371,-2.0352,-2.0296,-2.0251,-2.0225,-2.0209,-2.018,-2.0197,-2.0178,-2.0212,-2.0225,-2.0236,-2.024,-2.0246,-2.026,-2.0114,-2.0114,-2.0113,0,0,-2.0726,-2.0671,-2.0666,-2.0607,-2.0567,-2.0552,-2.0472,-2.0459,-2.0447,-2.0349,-2.0339,-2.0298,-2.0242,-2.0247,-2.0246,-2.0215,-2.0277,-2.0243,-2.0253,-2.025,-2.0254,-2.0268,-2.028,-2.0117,-2.0117,-2.0116,0,0,-2.0815,-2.0773,-2.0779,-2.0741,-2.0683,-2.0631,-2.0633,-2.0559,-2.0527,-2.0517,-2.0444,-2.0429,-2.0385,-2.0348,-2.0324,-2.0404,-2.0348,-2.0398,-2.0465,-2.0473,-2.0484,-2.0494,-2.0522,-2.0533,-2.0402,-2.0402,-2.0403,0,-2.0888,-2.0863,-2.0788,-2.078,-2.0757,-2.0671,-2.0677,-2.0644,-2.0579,-2.0565,-2.0532,-2.0477,-2.0433,-2.0428,-2.0448,-2.0432,-2.0431,-2.0404,-2.0489,-2.0498,-2.0506,-2.0531,-2.0542,-2.0409,-2.0408,-2.0407,-2.0407,0,-2.0956,-2.094,-2.0952,-2.0892,-2.0871,-2.087,-2.0796,-2.0784,-2.0737,-2.0689,-2.0679,-2.0624,-2.0583,-2.0579,-2.0532,-2.0569,-2.0551,-2.0505,-2.0444,-2.0527,-2.055,-2.0559,-2.0418,-2.0415,-2.0413,-2.0412,0,0,-2.1109,-2.1012,-2.1018,-2.099,-2.0921,-2.0907,-2.0904,-2.0865,-2.0856,-2.0815,-2.081,-2.0777,-2.0735,-2.0707,-2.0656,-2.0663,-2.073,-2.0615,-2.0613,-2.0637,-2.0767,-2.0801,-2.0814,-2.0694,-2.0696,-2.0697,-2.0771,0,-2.1185,-2.1173,-2.1108,-2.1115,-2.1099,-2.1019,-2.1016,-2.0974,-2.093,-2.0911,-2.0862,-2.084,-2.0786,-2.0769,-2.0773,-2.0721,-2.0754,-2.0715,-2.0687,-2.0687,-2.0701,-2.0825,-2.086,-2.0933,-2.078,-2.0781,-2.0782,0,-2.1271,-2.1237,-2.1243,-2.1176,-2.1167,-2.1166,-2.1125,-2.1109,-2.106,-2.1028,-2.1,-2.0943,-2.0935,-2.0882,-2.087,-2.0845,-2.083,-2.0804,-2.0805,-2.0797,-2.0738,-2.0819,-2.0954,-2.0965,-2.0796,-2.0795,-2.0794,0,-2.1382,-2.1338,-2.1335,-2.1315,-2.1237,-2.1238,-2.1206,-2.1155,-2.1136,-2.1102,-2.1089,-2.1055,-2.1036,-2.1011,-2.0946,-2.0913,-2.0942,-2.0883,-2.0915,-2.0916,-2.0921,-2.0921,-2.1054,-2.0917,-2.0916,-2.0916,-2.0916,0,-2.1471,-2.1478,-2.1384,-2.1383,-2.1388,-2.1315,-2.1322,-2.1282,-2.1239,-2.1228,-2.1158,-2.115,-2.1066,-2.1049,-2.0999,-2.0997,-2.099,-2.0963,-2.0949,-2.0968,-2.0971,-2.0955,-2.0948,-2.0919,-2.0918,-2.0918,-2.0917,0,-2.1594,-2.1532,-2.1524,-2.1452,-2.1435,-2.1442,-2.138,-2.1376,-2.133,-2.1318,-2.1311,-2.1238,-2.1215,-2.1149,-2.1109,-2.1075,-2.1087,-2.1063,-2.1104,-2.1094,-2.1129,-2.1127,-2.1254,-2.1267,-2.1124,-2.1126,-2.1127,0,-2.1654,-2.1657,-2.1587,-2.1575,-2.1546,-2.1529,-2.151,-2.1439,-2.1423,-2.137,-2.1372,-2.1344,-2.1316,-2.1283,-2.1226,-2.1195,-2.1168,-2.1216,-2.1163,-2.1182,-2.1167,-2.1167,-2.1167,-2.1226,-2.1228,-2.123,-2.1231,0,-2.1767,-2.1737,-2.1713,-2.1679,-2.166,-2.1629,-2.1595,-2.159,-2.1511,-2.1496,-2.1472,-2.1451,-2.1411,-2.1383,-2.1344,-2.1311,-2.1258,-2.1249,-2.1254,-2.1272,-2.1295,-2.1282,-2.1133,-2.1245,-2.1244,-2.1243,-2.1242,-2.1241,-2.1859,-2.1858,-2.1809,-2.1786,-2.1753,-2.1724,-2.1717,-2.1671,-2.165,-2.1611,-2.1572,-2.1552,-2.1506,-2.1448,-2.1419,-2.1403,-2.1375,-2.1383,-2.1384,-2.1387,-2.1396,-2.13,-2.1396,-2.1395,-2.1395,-2.1394,-2.1394,0,-2.1967,-2.1932,-2.1912,-2.1867,-2.1849,-2.1803,-2.1764,-2.1751,-2.1735,-2.1697,-2.1673,-2.1646,-2.162,-2.1563,-2.1531,-2.153,-2.1505,-2.1524,-2.1522,-2.1515,-2.1423,-2.1421,-2.1544,-2.1544,-2.1544,-2.1544,-2.1544,-2.1544,-2.2021,-2.2018,-2.1983,-2.1964,-2.1929,-2.191,-2.1891,-2.1864,-2.1833,-2.1807,-2.1785,-2.1749,-2.1703,-2.1669,-2.1643,-2.1627,-2.1618,-2.1645,-2.1621,-2.1536,-2.1521,-2.1507,-2.1505,-2.1644,-2.1644,-2.1714,-2.1714,-2.1715]},{"header":{"parameterUnit":"m.s-1","parameterCategory":1,"la1":30.2991,"la2":30.254,"lo1":-89.0895,"lo2":-89.0444,"dy":0.0017,"dx":0.0017,"nx":28,"ny":28,"refTime":"2024-04-05T09:00:00:Z","depth":0,"parameterNumber":3,"parameterNumberName":"V-component_of_WINDS"},"data":[0,0,0,0,0,0,0,0,0,0,0,0,0,0,0,0,0,0,0,0,0,0,0,0,0,0,0,0,0,0,0,0,0,0,0,0,0,0,0,0,0,0,0,0,0,0,0,0,0,0,0,0,0,0,0,0,0,0,3.0498,3.0498,0,3.0513,3.0513,3.0513,3.056,3.0561,3.0562,3.0563,3.0573,3.0573,3.0572,0,0,0,0,0,0,0,0,0,0,0,0,0,3.0505,3.0505,3.0498,3.0498,3.0498,3.0513,3.0513,3.0513,3.056,3.0561,3.0562,3.0563,3.0574,3.0573,3.0572,0,0,0,0,0,0,0,0,0,0,0,0,0,3.0509,3.0505,3.0498,3.0523,3.0526,3.0513,3.0513,3.0513,3.0559,3.0561,3.0562,3.0564,3.0574,3.0573,3.0572,3.0534,0,0,3.0569,3.0568,0,0,0,0,0,0,0,0,3.0509,3.0509,3.0519,3.0521,3.0524,3.0536,3.052,3.052,3.0559,3.0546,3.0563,3.0565,3.0559,3.056,3.0559,3.0534,3.0535,3.0569,3.0568,3.0567,3.0567,0,0,0,0,0,0,0,3.0509,3.0508,3.0503,3.0519,3.0522,3.0533,3.0535,3.052,3.0544,3.0548,3.0551,3.0552,3.0561,3.056,3.0559,3.0535,3.0569,3.0568,3.0567,3.0567,3.0481,3.0479,0,0,0,0,0,0,3.0505,3.0508,3.0503,3.0504,3.052,3.0531,3.0534,3.053,3.0544,3.0548,3.0551,3.0554,3.0561,3.0561,3.056,3.0517,3.0567,3.0566,3.0566,3.0482,3.048,3.0478,0,0,0,0,0,0,3.0505,3.0504,3.0502,3.0507,3.0507,3.0529,3.0525,3.053,3.0529,3.0547,3.0551,3.0546,3.0562,3.0561,3.054,3.0518,3.0566,3.0565,3.0484,3.0482,3.0479,3.043,0,0,0,0,0,0,3.0505,3.0504,3.0491,3.0506,3.0507,3.0483,3.0524,3.0529,3.0527,3.0532,3.0543,3.0546,3.0563,3.0542,3.0539,3.0517,3.0564,3.0486,3.0483,3.048,3.0433,3.0426,3.0419,0,0,0,0,0,3.0505,3.0475,3.049,3.0489,3.0491,3.0482,3.0482,3.0504,3.0525,3.0512,3.0523,3.0546,3.0521,3.0539,3.0537,3.0514,3.0488,3.0484,3.048,3.0436,3.0427,3.0419,0,0,0,0,0,0,3.0454,3.0477,3.0494,3.0468,3.0473,3.049,3.0473,3.0494,3.0491,3.0496,3.0522,3.0523,3.0499,3.0504,3.0525,3.0478,3.0508,3.0504,3.0475,3.0467,3.046,3.0458,3.0563,0,0,0,0,0,3.044,3.0432,3.0453,3.0428,3.0429,3.0451,3.0448,3.0465,3.047,3.0472,3.0482,3.0485,3.0478,3.0473,3.0467,3.0435,3.0437,3.0418,3.0411,3.0405,3.04,3.0384,3.0375,3.0466,3.0466,3.0466,0,0,3.041,3.0422,3.0415,3.0418,3.0423,3.0414,3.0452,3.044,3.0433,3.0469,3.0451,3.0458,3.0464,3.0437,3.0425,3.0441,3.0376,3.04,3.0395,3.0394,3.0379,3.037,3.0363,3.0464,3.0464,3.0465,0,0,3.0351,3.036,3.034,3.0346,3.0355,3.0369,3.0365,3.0379,3.0386,3.0368,3.0396,3.0387,3.0374,3.0377,3.0377,3.032,3.034,3.0318,3.028,3.0264,3.0256,3.025,3.023,3.0222,3.0313,3.0313,3.0313,0,3.0313,3.0301,3.0327,3.0314,3.0314,3.0348,3.0328,3.0332,3.0338,3.0336,3.0354,3.034,3.0346,3.032,3.0306,3.0305,3.03,3.0316,3.0256,3.025,3.0244,3.0225,3.0217,3.031,3.0311,3.0311,3.0311,0,3.0253,3.0244,3.0227,3.0234,3.0232,3.0215,3.0238,3.0232,3.0249,3.0262,3.0243,3.0252,3.0249,3.0244,3.026,3.0221,3.023,3.0251,3.0282,3.0232,3.0215,3.0207,3.0306,3.0307,3.0308,3.0309,0,0,3.0161,3.0184,3.0177,3.0181,3.0194,3.0187,3.0171,3.0171,3.0165,3.0168,3.0156,3.0145,3.0165,3.0165,3.0181,3.0167,3.0121,3.0189,3.019,3.0176,3.0078,3.0062,3.0053,3.0135,3.0134,3.0133,3.0078,0,3.0105,3.0081,3.0105,3.0076,3.0068,3.0101,3.0088,3.0094,3.0105,3.0099,3.0111,3.0103,3.013,3.0131,3.0118,3.0129,3.0102,3.0134,3.0122,3.0122,3.012,3.0044,3.0027,2.9975,3.0071,3.007,3.0069,0,3.0036,3.0038,3.0009,3.0025,3.0022,3.001,3.0011,3.0005,3.0013,3.0022,3.0022,3.0043,3.0028,3.0059,3.0038,3.0059,3.0056,3.0061,3.0059,3.0059,3.0092,3.0041,2.9959,2.9951,3.0059,3.006,3.006,0,2.9972,2.9967,2.9949,2.9952,2.9969,2.996,2.9967,2.9976,2.9974,2.9975,2.9974,2.9972,2.9971,2.9968,2.9988,3.0008,2.9964,2.9996,2.9971,2.997,2.9959,2.996,2.9875,2.9958,2.9958,2.9958,2.9958,0,2.9907,2.9888,2.9921,2.991,2.9889,2.9916,2.9894,2.9904,2.9912,2.9903,2.9931,2.9921,2.9948,2.9941,2.9956,2.9936,2.9936,2.9942,2.9946,2.9939,2.9938,2.9937,2.9941,2.9956,2.9957,2.9957,2.9957,0,2.9831,2.9853,2.9836,2.9855,2.9859,2.9843,2.9859,2.9848,2.9862,2.985,2.9849,2.987,2.9863,2.9883,2.9878,2.9889,2.986,2.987,2.9858,2.9861,2.9835,2.9837,2.9746,2.9735,2.9825,2.9824,2.9823,0,2.9788,2.9775,2.9793,2.9789,2.9795,2.9789,2.9788,2.9814,2.9811,2.9819,2.9807,2.9803,2.9802,2.9789,2.9803,2.98,2.981,2.9778,2.9809,2.9803,2.9809,2.981,2.9808,2.9771,2.977,2.9769,2.9769,0,2.971,2.9721,2.9719,2.9721,2.9719,2.9721,2.9725,2.972,2.9748,2.9744,2.9738,2.9737,2.9733,2.9728,2.9729,2.9734,2.9756,2.9759,2.9753,2.9745,2.9739,2.9742,2.984,2.9761,2.9761,2.9762,2.9762,2.9763,2.9649,2.9639,2.965,2.9647,2.9653,2.9656,2.9648,2.9662,2.9658,2.9658,2.9673,2.9664,2.9672,2.9675,2.9679,2.9671,2.9686,2.9677,2.9675,2.9672,2.9667,2.9741,2.9671,2.9672,2.9672,2.9672,2.9672,0,2.9572,2.9581,2.9578,2.9584,2.9581,2.9603,2.9609,2.9605,2.9597,2.9603,2.9601,2.9595,2.9591,2.9605,2.9603,2.9594,2.9604,2.9592,2.9593,2.9594,2.9655,2.966,2.9585,2.9585,2.9585,2.9585,2.9585,2.9585,2.9531,2.9515,2.9528,2.9515,2.9524,2.9517,2.9518,2.9521,2.9526,2.9518,2.9515,2.9525,2.9535,2.9533,2.953,2.9535,2.9532,2.9518,2.9525,2.9581,2.959,2.9598,2.9603,2.9517,2.9517,2.9465,2.9465,2.9464]}]]